Tracking 29799 objects as of 11-Oct-2024
HD Live streaming from Space Station
objects crossing your sky now

DMSP 5D-2 F11 DEB

Track DMSP 5D-2 F11 DEB now!
10-day predictions


NORAD ID: 28312
Int'l Code: 1991-082Z
Perigee: 809.5 km
Apogee: 827.5 km
Inclination: 98.7 °
Period: 101.1 minutes
Semi major axis: 7189 km
RCS: 0.0099 m2 (small)
Launch date: November 28, 1991
Source: United States (US)
Launch site: AIR FORCE WESTERN TEST RANGE (AFWTR)

Note: This is SATELLITE DEBRIS
Your satellite tracking list
Your tracking list is empty




NASA's NSSDC Master Catalog

Two Line Element Set (TLE):
1 28312U 91082Z   24285.07069383  .00011326  00000-0  49279-2 0  9999
2 28312  98.6739 316.4719 0012529  99.0167 261.2431 14.24139295 59814
Source of the keplerian elements: AFSPC